Regional Weather Roundup
Issued by NWS Sterling, VA

Home | Current Version | Previous Version | Graphics & Text | Print | Product List | Glossary On
Versions: 1 2 3 4 5 6 7 8 9 10 11 12 13 14 15 16 17 18 19 20 21 22 23 24 25 26 27
000
ASUS41 KLWX 251811
RWRLWX

REGIONAL WEATHER ROUNDUP
NATIONAL WEATHER SERVICE BALTIMORE MD/WASHINGTON DC
200 PM EDT TUE JUL 25 2017

Note: "FAIR" indicates few or no clouds below 12,000 feet
with no significant weather and/or obstructions to visibility.
 TC=TEMPERATURE CELSIUS

 * =Non NWS site. Station does not report precipitation (e.g. rain,
    snow, etc.), thunder, or fog.

DCZ001-MDZ009-015-VAZ040>042-051-053>054-251900-
WASHINGTON METRO

CITY           SKY/WX    TMP DP  RH WIND       PRES   REMARKS
WASHINGTON NAT PTSUNNY   81  62  52 N8        30.11F
DULLES         PTSUNNY   76  60  57 NW10      30.13S
ANDREWS AFB    PTSUNNY   78  61  55 NW12      30.10S
FT BELVOIR     CLOUDY    80  60  50 NW9       30.11S
QUANTICO       PTSUNNY   80  62  54 N10       30.12S
COLLEGE PARK*  CLOUDY    76  61  58 N8        30.11S
LEESBURG*      CLOUDY    77  64  65 NW10      30.15S
MANASSAS*      CLOUDY    78  61  55 NW12      30.13S
GAITHERSBURG*  CLOUDY    74  62  66 W7        30.15S

$$

MDZ006>007-011-014-251900-
BALTIMORE METRO

CITY           SKY/WX    TMP DP  RH WIND       PRES   REMARKS
BWI AIRPORT    PTSUNNY   79  63  57 NW9       30.10S
MD SCIENCE CTR   N/A     79  60  52 MISG      30.10S
MARTIN STATE   CLOUDY    79  64  61 NW9       30.11S
ANNAPOLIS      CLOUDY    78  66  66 NW8       30.10S
FORT MEADE*    CLOUDY    77  63  61 NW8       30.13S

$$

MDZ012-015-019>023-251900-
MARYLAND EASTERN SHORE

CITY           SKY/WX    TMP DP  RH WIND       PRES   REMARKS
OCEAN CITY     PTSUNNY   76  68  76 E10       30.07S
SALISBURY      PTSUNNY   80  63  55 NW9       30.07S
BAY BRIDGE AP* CLOUDY    77  63  61 N7        30.10S
CAMBRIDGE*     PTSUNNY   79  61  53 NW7G14    30.09S
EASTON*        PTSUNNY   79  63  57 N9        30.13S

$$

MDZ017>025-251900-
SOUTHERN MARYLAND

CITY           SKY/WX    TMP DP  RH WIND       PRES   REMARKS
PATUXENT RIVER PTSUNNY   80  64  58 N7        30.09S
ST INIGOES     MOSUNNY   81  62  52 NW5       30.08F
LEONARDTOWN*   PTSUNNY   79  59  50 NW8       30.11S

$$

MDZ003>005-251900-
NORTH CENTRAL MARYLAND

CITY           SKY/WX    TMP DP  RH WIND       PRES   REMARKS
FREDERICK*     CLOUDY    79  57  47 N5        30.16R
HAGERSTOWN APT CLOUDY    76  59  55 N6        30.15R
WESTMINSTER*   PTSUNNY   77  61  57 N6        30.14R

$$

MDZ501>502-251900-
WESTERN MARYLAND

CITY           SKY/WX    TMP DP  RH WIND       PRES   REMARKS
OAKLAND*       CLOUDY    57  54  88 CALM      30.22S
CUMBERLAND*    CLOUDY    72  57  60 CALM      30.21F

$$

VAZ025>031-251900-
SHENANDOAH VALLEY

CITY           SKY/WX    TMP DP  RH WIND       PRES   REMARKS
WINCHESTER*    CLOUDY    72  55  56 NW10      30.16S
FRONT ROYAL*   CLOUDY    73  57  56 N6        30.15S
LURAY*         SUNNY     79  55  44 N8        30.15S
NEW MARKET*    MOSUNNY   77  57  50 E8        30.14S
STAUNTON*      SUNNY     79  57  45 N6        30.16S
WAYNESBORO*    SUNNY     81  60  48 NE3       30.14S

$$

WVZ021-048>050-054>055-251900-
EASTERN WEST VIRGINIA PANHANDLE

CITY           SKY/WX    TMP DP  RH WIND       PRES   REMARKS
MARTINSBURG    CLOUDY    74  57  55 NW10      30.15R
PETERSBURG*    SUNNY     78  59  51 N7        30.17S

$$

VAZ036>039-050-251900-
CENTRAL FOOTHILLS

CITY           SKY/WX    TMP DP  RH WIND       PRES   REMARKS
CHARLOTTESVILL SUNNY     84  58  40 NE8       30.11F
CULPEPER*      MOSUNNY   80  61  51 N10       30.14S
ORANGE*        MOSUNNY   79  57  47 NE8       30.12F
GORDONSVILLE*  MOSUNNY   82  61  49 NE5       30.11S
WARRENTON*     SUNNY     81  57  43 N10       30.13S

$$

VAZ055>057-251900-
NORTH AND CENTRAL PIEDMONT

CITY           SKY/WX    TMP DP  RH WIND       PRES   REMARKS
FREDERICKSBRG* MOSUNNY   81  61  50 N7G16     30.10F
STAFFORD*      CLOUDY    78  59  51 N9        30.15F

$$

NCZ024-NYZ072-PAZ021-071-VAZ022-071-251900-
OTHER REGIONAL OBSERVATIONS

CITY           SKY/WX    TMP DP  RH WIND       PRES   REMARKS
NEW YORK CITY  CLOUDY    69  59  70 NE6       30.14S
PHILADELPHIA   PTSUNNY   77  62  59 NE8       30.09S
PITTSBURGH     CLOUDY    70  58  65 N8        30.20S
ROANOKE        SUNNY     88  56  33 W7        30.12F
RICHMOND       PTSUNNY   85  62  46 VRB7G18   30.09S
RALEIGH        CLOUDY    88  66  48 N8        30.08S HX  90

$$

ANZ530>537-251900-
MARINE OBSERVATIONS

STATION/POSITION TIME  TEMP    WIND        PRES
                       AIR SEA DIR/SP/G
                 (UTC) (F)     (DEG/KT/KT) (MB)
THOMAS PT LIGHT  1800   76 82  360/  8/  9   N/A
BALT KEY BRIDGE  1742   77      40/  5/  6 1019.0F
COVE POINT       1742   75      20/  8/ 10 1019.8S
LEWISETTA        1742   78 84  350/  8/ 11 1018.9F
SOLOMONS ISLAND  1748          360/  3/  6   N/A
PINEY POINT      1748          340/ 10/ 11   N/A

$$





USA.gov is the U.S. government's official web portal to all federal, state and local government web resources and services.